Location: Central Falls
(41.8900°N, 71.3929°W)
Time: 01:03:59
(UTC+00:00)

Vanguard 3 - Pass Details

Date: 03 December 2023
Orbit: 508 x 3239 km, 33.4° (Epoch: 03 March)

Event Time Altitude Azimuth Distance (km) Brightness Sun altitude
Rises 07:24:09 0° 265° (W) 3,657 - -49.6°
Reaches altitude 10° 07:27:50 10° 249° (WSW) 2,317 - -49.0°
Maximum altitude 07:31:27 19° 204° (SSW) 1,475 - -48.3°
Drops below altitude 10° 07:34:22 10° 156° (SSE) 1,811 - -47.8°
Sets 07:36:49 0° 137° (SE) 2,609 - -47.3°
